Weather in Kota

India     25°10′37″N   75°50′56″E
temp.,
°C
wind,
m/s
gust,
m/s
humid.,
%
clouds,
%
prec.,
mm/h
press.,
hPa
HPBL,
m
8 august, mon
mon823:30+28e358289 2.5 999116
02:30+28e2383100 0.6 99899
05:30+27e128595 1.1 99953
08:30+29e337398 1.4 1000393
11:30+32e22545 2.2 9991064
14:30+34ene33464 0.0 9961746
17:30+33ene455799 0.0 995677
20:30+31ene36653 0.0 997173
9 august, tue
tue923:30+30ese247167 0.3 997119
02:30+29e247691 0.1 996113
05:30+28e377950 2.6 997206
08:30+30e476851 1.4 998492
11:30+34ene585325 1.6 9971750
14:30+33e4856100 0.3 994501
17:30+33ne4860100 0.3 994301
20:30+31e37676 0.0 995181
10 august, wed
wed1023:30+30ene2271100 0.0 99652
02:30+30ne2371100 0.3 99566
05:30+29ne367553 0.9 995172
08:30+31e58650 0.7 996727
11:30+34e585228 0.7 9951783
14:30+34e3653100 0.1 994649
17:30+32sse346490 0.2 994134
20:30+31sw3467100 0.0 995101
11 august, thu
thu1123:30+29sw3572100 0.0 996210
02:30+28wsw3576100 0.9 995106
05:30+27wsw4681100 5.6 996141
08:30+29wnw3374100 1.1 998240
11:30+31ene2265100 3.6 998725
14:30+29e2276100 8.3 997251
17:30+27w1184100 15.2 99892
20:30+27wnw1287100 3.8 999101
12 august, fri
fri1223:30+26sw1288100 4.9 99981
02:30+26w2390100 3.3 99894
05:30+25nw2492100 7.3 998199
08:30+27ene358664 7.1 998543
11:30+28ene3481100 10.6 998706
14:30+29se2376100 4.8 995677
17:30+28s1282100 12.6 995130
20:30+27ssw4786100 2.1 996208